Princeton, MN

7:50 PM CST on November 22, 2019 (GMT -0600)
Princeton Municipal

Weather History for KPNM - September, 2019

Change the Weather History Date:

Monday, September 23, 2019

  Actual Average Record
Temperature  
Mean Temperature 60 °F -  
Max Temperature 75 °F 65 °F 86 °F (2017)
Min Temperature 46 °F 41 °F 24 °F (2012)
Degree Days  
Heating Degree Days 4    
Growing Degree Days 10 (Base 50)    
Moisture  
Dew Point 51 °F    
Average Humidity 75    
Maximum Humidity 100    
Minimum Humidity 36    
Precipitation  
Precipitation 0.00 in - - ()
Sea Level Pressure  
Sea Level Pressure 29.94 in    
Wind  
Wind Speed 2 mph (WSW)    
Max Wind Speed 12 mph    
Max Gust Speed 18 mph    
Visibility 9 miles    
Events      
Averages and records for this station are not official NWS values.
T = Trace of Precipitation, MM = Missing Value Source: NWS Daily Summary

Daily Weather History Graph

Daily Weather History Graph

Search for Another Location

Airport or City:

Astronomy

Sep. 23, 2019 Rise Set
Actual Time 7:02 AM CDT 7:10 PM CDT
Civil Twilight 6:32 AM CDT 7:39 PM CDT
Nautical Twilight 5:58 AM CDT 8:14 PM CDT
Astronomical Twilight 5:22 AM CDT 8:50 PM CDT
Moon 12:27 AM CDT 4:23 PM CDT
Length of Visible Light 13h 07m
Length of Day
12h 07m
Waning Crescent, 33% of the Moon is Illuminated
Sep 23
Waning Crescent
Sep 28
New
Oct 5
First Quarter
Oct 13
Full
Oct 21
Last Quarter

Hourly Weather History & Observations

Time (CDT) Temp. Dew Point Humidity Pressure Visibility Wind Dir Wind Speed Gust Speed Precip Events Conditions
12:16 AM 55.4 °F 53.6 °F 94% 29.91 in 10.0 mi Calm Calm - N/A   Clear
12:35 AM 55.4 °F 53.6 °F 94% 29.91 in 10.0 mi Calm Calm - N/A   Clear
12:36 AM 55.4 °F 53.6 °F 94% 29.91 in 10.0 mi Calm Calm - N/A   Clear
12:55 AM 55.4 °F 53.6 °F 94% 29.91 in 10.0 mi Calm Calm - N/A   Clear
12:56 AM 55.4 °F 53.6 °F 94% 29.91 in 10.0 mi Calm Calm - N/A   Clear
1:19 AM 53.6 °F 51.8 °F 94% 29.91 in 10.0 mi Calm Calm - N/A   Clear
1:37 AM 53.6 °F 53.6 °F 100% 29.91 in 10.0 mi Calm Calm - N/A   Clear
1:55 AM 53.6 °F 53.6 °F 100% 29.91 in 10.0 mi Calm Calm - N/A   Clear
2:15 AM 53.6 °F 51.8 °F 94% 29.91 in 10.0 mi Calm Calm - N/A   Clear
2:16 AM 53.6 °F 51.8 °F 94% 29.91 in 10.0 mi Calm Calm - N/A   Clear
2:35 AM 53.6 °F 51.8 °F 94% 29.92 in 10.0 mi Calm Calm - N/A   Clear
2:40 AM 53.6 °F 51.8 °F 94% 29.92 in 10.0 mi Calm Calm - N/A   Clear
2:58 AM 53.6 °F 51.8 °F 94% 29.91 in 10.0 mi Calm Calm - N/A   Clear
3:16 AM 51.8 °F 51.8 °F 100% 29.91 in 10.0 mi Calm Calm - N/A   Clear
3:35 AM 51.8 °F 51.8 °F 100% 29.92 in 10.0 mi Calm Calm - N/A   Scattered Clouds
3:36 AM 51.8 °F 51.8 °F 100% 29.92 in 10.0 mi Calm Calm - N/A   Scattered Clouds
3:55 AM 51.8 °F 50.0 °F 94% 29.92 in 4.0 mi Calm Calm - N/A   Scattered Clouds
4:19 AM 50.0 °F 48.2 °F 94% 29.92 in 1.8 mi Calm Calm - N/A   Mostly Cloudy
4:37 AM 48.2 °F 46.4 °F 93% 29.93 in 1.2 mi Calm Calm - N/A   Mostly Cloudy
4:55 AM 48.2 °F 48.2 °F 100% 29.93 in 3.0 mi Calm Calm - N/A   Clear
4:56 AM 48.2 °F 48.2 °F 100% 29.93 in 5.0 mi Calm Calm - N/A   Clear
5:15 AM 46.4 °F 46.4 °F 100% 29.93 in 10.0 mi Calm Calm - N/A   Clear
5:35 AM 48.2 °F 48.2 °F 100% 29.93 in 7.0 mi Calm Calm - N/A   Clear
5:40 AM 48.2 °F 48.2 °F 100% 29.93 in 7.0 mi Calm Calm - N/A   Scattered Clouds
5:58 AM 50.0 °F 50.0 °F 100% 29.93 in 10.0 mi Calm Calm - N/A   Scattered Clouds
6:16 AM 48.2 °F 48.2 °F 100% 29.94 in 5.0 mi Calm Calm - N/A   Clear
6:35 AM 48.2 °F 48.2 °F 100% 29.94 in 7.0 mi Calm Calm - N/A   Scattered Clouds
6:55 AM 50.0 °F 50.0 °F 100% 29.94 in 10.0 mi Calm Calm - N/A   Scattered Clouds
7:19 AM 51.8 °F 50.0 °F 94% 29.94 in 10.0 mi Calm Calm - N/A   Clear
7:37 AM 51.8 °F 51.8 °F 100% 29.95 in 10.0 mi Calm Calm - N/A   Clear
7:55 AM 51.8 °F 51.8 °F 100% 29.95 in 10.0 mi Calm Calm - N/A   Clear
7:56 AM 51.8 °F 51.8 °F 100% 29.95 in 10.0 mi Calm Calm - N/A   Clear
8:15 AM 53.6 °F 51.8 °F 94% 29.95 in 10.0 mi Calm Calm - N/A   Scattered Clouds
8:35 AM 55.4 °F 53.6 °F 94% 29.96 in 10.0 mi SW 3.5 mph - N/A   Scattered Clouds
8:58 AM 57.2 °F 53.6 °F 88% 29.96 in 10.0 mi WSW 5.8 mph - N/A   Clear
9:16 AM 59.0 °F 53.6 °F 82% 29.97 in 10.0 mi WSW 4.6 mph - N/A   Clear
9:35 AM 62.6 °F 53.6 °F 72% 29.97 in 10.0 mi WSW 5.8 mph - N/A   Clear
9:55 AM 62.6 °F 53.6 °F 72% 29.97 in 10.0 mi WSW 9.2 mph - N/A   Clear
10:19 AM 66.2 °F 53.6 °F 64% 29.98 in 10.0 mi WSW 9.2 mph - N/A   Clear
10:37 AM 66.2 °F 53.6 °F 64% 29.98 in 10.0 mi WSW 10.4 mph - N/A   Clear
10:55 AM 68.0 °F 53.6 °F 60% 29.98 in 10.0 mi West 10.4 mph - N/A   Clear
10:56 AM 68.0 °F 53.6 °F 60% 29.98 in 10.0 mi West 9.2 mph - N/A   Clear
11:15 AM 69.8 °F 55.4 °F 60% 29.98 in 10.0 mi WSW 6.9 mph - N/A   Clear
11:35 AM 69.8 °F 55.4 °F 60% 29.98 in 10.0 mi SW 6.9 mph - N/A   Clear
11:58 AM 71.6 °F 53.6 °F 53% 29.98 in 10.0 mi West 11.5 mph - N/A   Clear
12:16 PM 73.4 °F 53.6 °F 50% 29.98 in 10.0 mi West 9.2 mph - N/A   Clear
12:35 PM 73.4 °F 53.6 °F 50% 29.98 in 10.0 mi West 10.4 mph - N/A   Clear
12:55 PM 73.4 °F 53.6 °F 50% 29.98 in 7.0 mi West 6.9 mph - N/A   Clear
1:19 PM 75.2 °F 51.8 °F 44% 29.97 in 10.0 mi West 9.2 mph - N/A   Clear
1:37 PM 75.2 °F 50.0 °F 41% 29.97 in 10.0 mi West 10.4 mph 16.1 mph N/A   Clear
1:55 PM 75.2 °F 48.2 °F 38% 29.96 in 10.0 mi West 10.4 mph - N/A   Clear
2:15 PM 75.2 °F 48.2 °F 38% 29.96 in 10.0 mi WSW 9.2 mph 16.1 mph N/A   Clear
2:35 PM 75.2 °F 48.2 °F 38% 29.95 in 10.0 mi WSW 10.4 mph 17.3 mph N/A   Clear
2:40 PM 75.2 °F 48.2 °F 38% 29.95 in 10.0 mi SW 6.9 mph 17.3 mph N/A   Clear
2:58 PM 75.2 °F 46.4 °F 36% 29.95 in 10.0 mi WSW 9.2 mph 18.4 mph N/A   Clear
3:16 PM 75.2 °F 46.4 °F 36% 29.95 in 10.0 mi WSW 9.2 mph - N/A   Clear
3:35 PM 75.2 °F 48.2 °F 38% 29.94 in 10.0 mi WSW 9.2 mph - N/A   Clear
3:55 PM 75.2 °F 46.4 °F 36% 29.94 in 10.0 mi WSW 9.2 mph - N/A   Clear
4:19 PM 75.2 °F 48.2 °F 38% 29.94 in 10.0 mi SW 9.2 mph - N/A   Clear
4:37 PM 75.2 °F 48.2 °F 38% 29.94 in 10.0 mi SW 8.1 mph - N/A   Clear
4:56 PM 75.2 °F 48.2 °F 38% 29.94 in 10.0 mi SW 6.9 mph - N/A   Clear
5:15 PM 75.2 °F 48.2 °F 38% 29.94 in 10.0 mi SW 8.1 mph - N/A   Clear
5:35 PM 75.2 °F 48.2 °F 38% 29.93 in 10.0 mi SW 5.8 mph - N/A   Clear
5:40 PM 75.2 °F 48.2 °F 38% 29.93 in 10.0 mi SW 5.8 mph - N/A   Clear
5:58 PM 73.4 °F 48.2 °F 41% 29.93 in 10.0 mi SW 4.6 mph - N/A   Clear
6:16 PM 73.4 °F 48.2 °F 41% 29.93 in 10.0 mi Calm Calm - N/A   Clear
6:35 PM 71.6 °F 51.8 °F 50% 29.93 in 10.0 mi Calm Calm - N/A   Clear
6:36 PM 71.6 °F 51.8 °F 50% 29.93 in 10.0 mi Calm Calm - N/A   Clear
6:55 PM 68.0 °F 51.8 °F 56% 29.93 in 10.0 mi Calm Calm - N/A   Clear
7:19 PM 64.4 °F 53.6 °F 68% 29.92 in 10.0 mi Calm Calm - N/A   Clear
7:37 PM 62.6 °F 53.6 °F 72% 29.92 in 10.0 mi Calm Calm - N/A   Clear
7:55 PM 60.8 °F 51.8 °F 72% 29.93 in 10.0 mi Calm Calm - N/A   Clear
7:56 PM 60.8 °F 51.8 °F 72% 29.93 in 10.0 mi Calm Calm - N/A   Clear
8:15 PM 59.0 °F 51.8 °F 77% 29.93 in 10.0 mi South 3.5 mph - N/A   Clear
8:16 PM 59.0 °F 51.8 °F 77% 29.93 in 10.0 mi South 3.5 mph - N/A   Clear
8:35 PM 59.0 °F 51.8 °F 77% 29.93 in 10.0 mi Calm Calm - N/A   Clear
8:40 PM 57.2 °F 51.8 °F 82% 29.93 in 10.0 mi Calm Calm - N/A   Clear
8:58 PM 57.2 °F 51.8 °F 82% 29.93 in 10.0 mi Calm Calm - N/A   Clear
9:16 PM 57.2 °F 51.8 °F 82% 29.93 in 10.0 mi Calm Calm - N/A   Clear
9:35 PM 57.2 °F 51.8 °F 82% 29.93 in 10.0 mi Calm Calm - N/A   Clear
9:55 PM 57.2 °F 51.8 °F 82% 29.92 in 10.0 mi Calm Calm - N/A   Clear
10:19 PM 55.4 °F 51.8 °F 88% 29.92 in 10.0 mi Calm Calm - N/A   Clear
10:37 PM 55.4 °F 51.8 °F 88% 29.92 in 10.0 mi Calm Calm - N/A   Clear
10:55 PM 53.6 °F 50.0 °F 88% 29.92 in 10.0 mi Calm Calm - N/A   Clear
10:56 PM 53.6 °F 50.0 °F 88% 29.92 in 10.0 mi Calm Calm - N/A   Clear
11:15 PM 53.6 °F 50.0 °F 88% 29.91 in 10.0 mi Calm Calm - N/A   Clear
11:35 PM 53.6 °F 51.8 °F 94% 29.91 in 10.0 mi Calm Calm - N/A   Clear
11:58 PM 51.8 °F 48.2 °F 88% 29.90 in 10.0 mi Calm Calm - N/A   Clear